• In Hungary
  • List of Countries
  • For 7 days
  • Water Temperature
  • Satellite Maps
  • Weather Map
  • News
  • Weather Widgets
  • user-avatar
    Login

    Hourly Weather Potashenkove

    Today, 19 November, Sunday

    Time Temperature Precipitation Wind Pressure Humidity
    00:00 +4°C° 0.1 mm 0 mps 754 mmHg 88%
    01:00 +4°C° 0.1 mm 0 mps 753 mmHg 89%
    02:00 +6°C° 0 mm 1 mps 752 mmHg 92%
    03:00 +6°C° 0.3 mm 1 mps 752 mmHg 92%
    04:00 +5°C° 0.3 mm 0 mps 752 mmHg 93%
    05:00 +5°C° 0.3 mm 0 mps 752 mmHg 94%
    06:00 +5°C° 0.2 mm 0 mps 751 mmHg 94%
    07:00 +5°C° 0.2 mm 0 mps 751 mmHg 94%
    08:00 +7°C° 0 mm 1 mps 751 mmHg 94%
    09:00 +7°C° 0.6 mm 1 mps 751 mmHg 93%
    10:00 +7°C° 0.6 mm 1 mps 751 mmHg 92%
    11:00 +8°C° 0.6 mm 1 mps 751 mmHg 91%
    12:00 +8°C° 0.2 mm 1 mps 751 mmHg 89%
    13:00 +9°C° 0.2 mm 1 mps 750 mmHg 86%
    14:00 +6°C° 0 mm 2 mps 750 mmHg 88%
    15:00 +6°C° 0.1 mm 2 mps 750 mmHg 88%
    16:00 +6°C° 0.1 mm 2 mps 750 mmHg 88%
    17:00 +6°C° 0.1 mm 2 mps 750 mmHg 88%
    18:00 +6°C° 0 mm 2 mps 750 mmHg 89%
    19:00 +5°C° 0 mm 2 mps 750 mmHg 89%
    20:00 +5°C° 0 mm 2 mps 751 mmHg 89%
    21:00 +5°C° 0 mm 2 mps 751 mmHg 88%
    22:00 +4°C° 0 mm 3 mps 751 mmHg 87%
    23:00 +4°C° 0 mm 3 mps 751 mmHg 86%

    Tomorrow, 20 November, Monday

    Time Temperature Precipitation Wind Pressure Humidity
    00:00 +4°C° 0 mm 3 mps 751 mmHg 86%
    01:00 +3°C° 0 mm 3 mps 751 mmHg 86%
    02:00 +3°C° 0 mm 3 mps 751 mmHg 86%
    03:00 +3°C° 0 mm 3 mps 751 mmHg 86%
    04:00 +2°C° 0 mm 3 mps 751 mmHg 86%
    05:00 +1°C° 0 mm 4 mps 751 mmHg 86%
    06:00 +1°C° 0 mm 4 mps 751 mmHg 85%
    07:00 +2°C° 0 mm 3 mps 751 mmHg 85%
    08:00 +2°C° 0 mm 3 mps 751 mmHg 84%
    09:00 +3°C° 0 mm 4 mps 751 mmHg 78%
    10:00 +4°C° 0 mm 4 mps 751 mmHg 73%
    11:00 +3°C° 0 mm 5 mps 751 mmHg 68%
    12:00 +5°C° 0 mm 5 mps 751 mmHg 62%
    13:00 +6°C° 0 mm 5 mps 751 mmHg 57%
    14:00 +6°C° 0 mm 5 mps 751 mmHg 51%
    15:00 +5°C° 0 mm 4 mps 751 mmHg 55%
    16:00 +5°C° 0 mm 4 mps 751 mmHg 58%
    17:00 +4°C° 0 mm 3 mps 751 mmHg 62%
    18:00 +3°C° 0 mm 3 mps 751 mmHg 64%
    19:00 +3°C° 0 mm 3 mps 751 mmHg 66%
    20:00 +3°C° 0 mm 3 mps 751 mmHg 67%
    21:00 +3°C° 0 mm 4 mps 752 mmHg 68%
    22:00 +3°C° 0 mm 4 mps 752 mmHg 69%
    23:00 +3°C° 0 mm 4 mps 752 mmHg 69%

    Day after tomorrow, 21 November, Tuesday

    Time Temperature Precipitation Wind Pressure Humidity
    00:00 +1°C° 0 mm 5 mps 752 mmHg 70%
    01:00 +1°C° 0 mm 5 mps 753 mmHg 71%
    02:00 +1°C° 0 mm 5 mps 753 mmHg 72%
    03:00 0°C° 0 mm 5 mps 753 mmHg 74%
    04:00 0°C° 0 mm 4 mps 753 mmHg 75%
    05:00 -1°C° 0 mm 4 mps 753 mmHg 77%
    06:00 -1°C° 0 mm 4 mps 753 mmHg 77%
    07:00 -1°C° 0 mm 4 mps 753 mmHg 78%
    08:00 -2°C° 0 mm 4 mps 754 mmHg 78%
    09:00 -1°C° 0 mm 4 mps 754 mmHg 70%
    10:00 +1°C° 0 mm 4 mps 754 mmHg 62%
    11:00 +2°C° 0 mm 5 mps 754 mmHg 54%
    12:00 +4°C° 0 mm 4 mps 753 mmHg 52%
    13:00 +4°C° 0 mm 4 mps 753 mmHg 51%
    14:00 +5°C° 0 mm 4 mps 753 mmHg 49%
    15:00 +4°C° 0 mm 3 mps 753 mmHg 52%
    16:00 +4°C° 0 mm 2 mps 753 mmHg 56%
    17:00 +4°C° 0 mm 1 mps 753 mmHg 59%
    18:00 +4°C° 0 mm 1 mps 753 mmHg 61%
    19:00 +4°C° 0 mm 1 mps 753 mmHg 62%
    20:00 +3°C° 0 mm 1 mps 753 mmHg 63%
    21:00 +3°C° 0 mm 1 mps 753 mmHg 65%
    22:00 +3°C° 0 mm 1 mps 753 mmHg 66%
    23:00 +3°C° 0 mm 1 mps 753 mmHg 67%

    22 November, Wednesday

    Time Temperature Precipitation Wind Pressure Humidity
    00:00 +3°C° 0.1 mm 1 mps 753 mmHg 68%
    01:00 +3°C° 0.1 mm 1 mps 753 mmHg 69%
    02:00 +3°C° 0.1 mm 1 mps 753 mmHg 69%
    03:00 +2°C° 0.1 mm 2 mps 753 mmHg 70%
    04:00 +2°C° 0.1 mm 2 mps 753 mmHg 71%
    05:00 +2°C° 0.1 mm 2 mps 753 mmHg 72%
    06:00 +1°C° 0.1 mm 3 mps 754 mmHg 72%
    07:00 +1°C° 0.1 mm 3 mps 754 mmHg 72%
    08:00 +1°C° 0.1 mm 3 mps 755 mmHg 73%
    09:00 +2°C° 0 mm 3 mps 755 mmHg 68%
    10:00 +1°C° 0 mm 4 mps 756 mmHg 63%
    11:00 +3°C° 0 mm 4 mps 756 mmHg 58%
    12:00 +4°C° 0 mm 4 mps 757 mmHg 56%
    13:00 +3°C° 0 mm 5 mps 757 mmHg 54%
    14:00 +3°C° 0 mm 5 mps 757 mmHg 52%
    15:00 +2°C° 0 mm 5 mps 757 mmHg 57%
    16:00 +1°C° 0 mm 4 mps 758 mmHg 62%
    17:00 +1°C° 0 mm 3 mps 758 mmHg 66%
    18:00 +1°C° 0 mm 3 mps 759 mmHg 68%
    19:00 0°C° 0 mm 3 mps 759 mmHg 69%
    20:00 +1°C° 0 mm 2 mps 760 mmHg 71%
    21:00 -1°C° 0 mm 2 mps 760 mmHg 71%
    22:00 -1°C° 0 mm 2 mps 760 mmHg 71%
    23:00 -1°C° 0 mm 2 mps 760 mmHg 71%

    23 November, Thursday

    Time Temperature Precipitation Wind Pressure Humidity
    00:00 -1°C° 0 mm 2 mps 761 mmHg 71%
    01:00 +1°C° 0 mm 1 mps 761 mmHg 72%
    02:00 0°C° 0 mm 1 mps 761 mmHg 72%
    03:00 0°C° 0 mm 1 mps 761 mmHg 73%
    04:00 0°C° 0 mm 1 mps 761 mmHg 73%
    05:00 0°C° 0 mm 1 mps 762 mmHg 73%
    06:00 0°C° 0 mm 1 mps 762 mmHg 73%
    07:00 0°C° 0 mm 1 mps 762 mmHg 72%
    08:00 +1°C° 0 mm 1 mps 763 mmHg 72%
    09:00 +2°C° 0 mm 1 mps 763 mmHg 66%
    10:00 +3°C° 0 mm 1 mps 763 mmHg 60%
    11:00 +4°C° 0 mm 1 mps 763 mmHg 54%
    12:00 +5°C° 0 mm 1 mps 763 mmHg 52%
    13:00 +5°C° 0 mm 1 mps 763 mmHg 50%
    14:00 +6°C° 0 mm 1 mps 763 mmHg 48%
    15:00 +5°C° 0 mm 1 mps 763 mmHg 51%
    16:00 +4°C° 0 mm 1 mps 763 mmHg 55%
    17:00 +3°C° 0 mm 1 mps 763 mmHg 58%
    18:00 +3°C° 0 mm 1 mps 762 mmHg 59%
    19:00 +2°C° 0 mm 2 mps 762 mmHg 60%
    20:00 +2°C° 0 mm 2 mps 762 mmHg 61%
    21:00 +2°C° 0 mm 2 mps 762 mmHg 62%
    22:00 +3°C° 0 mm 2 mps 762 mmHg 63%
    23:00 +3°C° 0 mm 2 mps 762 mmHg 64%

    24 November, Friday

    Time Temperature Precipitation Wind Pressure Humidity
    00:00 +3°C° 0 mm 2 mps 762 mmHg 66%
    01:00 +3°C° 0 mm 2 mps 762 mmHg 68%
    02:00 +3°C° 0 mm 2 mps 761 mmHg 70%
    03:00 +3°C° 0 mm 2 mps 761 mmHg 74%
    04:00 +3°C° 0 mm 2 mps 761 mmHg 77%
    05:00 +2°C° 0 mm 2 mps 760 mmHg 80%
    06:00 +3°C° 0 mm 2 mps 760 mmHg 81%
    07:00 +3°C° 0 mm 2 mps 760 mmHg 81%
    08:00 +3°C° 0 mm 2 mps 760 mmHg 82%
    09:00 +3°C° 0 mm 3 mps 760 mmHg 78%
    10:00 +4°C° 0 mm 3 mps 760 mmHg 74%
    11:00 +5°C° 0 mm 3 mps 760 mmHg 69%
    12:00 +6°C° 0 mm 4 mps 759 mmHg 68%
    13:00 +6°C° 0 mm 4 mps 759 mmHg 67%
    14:00 +7°C° 0 mm 5 mps 758 mmHg 65%
    15:00 +6°C° 0 mm 4 mps 759 mmHg 69%
    16:00 +6°C° 0 mm 4 mps 759 mmHg 73%
    17:00 +6°C° 0 mm 4 mps 759 mmHg 77%
    18:00 +6°C° 0 mm 4 mps 759 mmHg 79%
    19:00 +6°C° 0 mm 4 mps 759 mmHg 81%
    20:00 +6°C° 0 mm 5 mps 759 mmHg 83%
    21:00 +5°C° 0 mm 5 mps 760 mmHg 83%
    22:00 +5°C° 0 mm 5 mps 760 mmHg 84%
    23:00 +5°C° 0 mm 5 mps 760 mmHg 85%
    Show more